Impacts METAR Board INFO
IDs:

KDEN - Denver Intl, CO, US

Updated at: 1501 UTC 16 Dec 2017
Potential Impact None Slight Moderate High
Time16/03Z 16/04Z 16/05Z 16/06Z 16/07Z 16/08Z 16/09Z 16/10Z 16/11Z 16/12Z 16/13Z 16/14Z 16/15Z
VIS10 10 10 10 10 10 10 10 10 10 10 10 10
CIG-- -- 220 220 220 220 220 180 180 160 180 150 150
CoverSCTSCTBKNBKNBKNOVCBKNOVCOVCOVCBKNBKNBKN
FltCatVFRVFRVFRVFRVFRVFRVFRVFRVFRVFRVFRVFRVFR
WX--------------------------
WDir210220210210210210200180170200140130300
WSpd9 8 12 7 12 8 8 7 9 6 5 5 6
WGst-- -- -- -- -- -- -- -- -- -- -- -- --
Raw hourly METARs
KDEN 160253Z 21009KT 10SM FEW140 SCT220 05/M11 A2985 RMK AO2 SLP101 T00501111 58005 $
KDEN 160353Z 22008KT 10SM FEW140 SCT220 06/M11 A2984 RMK AO2 SLP088 T00561106 $
KDEN 160453Z 21012KT 10SM FEW140 BKN220 07/M12 A2983 RMK AO2 SLP073 T00671117 $
KDEN 160553Z 21007KT 10SM SCT140 BKN220 06/M11 A2981 RMK AO2 SLP059 T00561111 10128 20017 58013 $
KDEN 160653Z 21012KT 10SM SCT140 BKN220 08/M12 A2978 RMK AO2 SLP041 T00781122 401721056 $
KDEN 160753Z 21008KT 10SM SCT140 OVC220 06/M11 A2977 RMK AO2 SLP039 T00611111 $
KDEN 160853Z 20008KT 10SM FEW120 SCT140 BKN220 04/M11 A2977 RMK AO2 SLP041 T00441106 56011 $
KDEN 160953Z 18007KT 10SM FEW140 BKN180 OVC220 03/M09 A2976 RMK AO2 SLP042 T00331094 $
KDEN 161053Z 17009KT 10SM FEW140 BKN180 OVC220 06/M10 A2975 RMK AO2 SLP035 T00561100 $
KDEN 161153Z 20006KT 10SM BKN160 BKN180 OVC220 04/M09 A2974 RMK AO2 SLP041 T00441089 10078 20028 58008 $
KDEN 161253Z 14005KT 10SM BKN180 BKN220 04/M08 A2975 RMK AO2 SLP050 T00391083 $
KDEN 161353Z 13005KT 10SM BKN150 BKN220 03/M08 A2977 RMK AO2 SLP061 T00331078 $
KDEN 161453Z 30006KT 10SM BKN150 BKN220 04/M08 A2979 RMK AO2 SLP074 T00391083 53014 $